Temp
-6 -6 -6 -6 -6 -6 -6 -5 -5 -6 -5 -5 -6 -6 -6 -7 -7 -6 -6 -6 -7 -7 -8 -9 -10 -10 -10 -10 -9 -10 -10 -9 -9
-6 -6 -6 -6 -6 -6 -6 -5 -6 -6 -6 -6 -6 -6 -6 -6 -7 -7 -7 -6 -7 -7 -7 -8 -9 -10 -10 -10 -10 -10 -9 -9 -9
-7 -6 -6 -6 -6 -6 -6 -6 -6 -6 -6 -6 -6 -6 -6 -6 -6 -7 -7 -7 -7 -7 -7 -7 -9 -10 -10 -10 -10 -10 -10 -9 -9
-7 -7 -7 -7 -7 -6 -6 -6 -6 -6 -6 -6 -7 -6 -7 -6 -6 -7 -7 -7 -7 -7 -7 -7 -8 -9 -10 -10 -10 -10 -10 -10 -9
-7 -7 -7 -7 -7 -7 -6 -6 -6 -6 -6 -7 -7 -7 -7 -7 -7 -7 -7 -7 -8 -8 -7 -7 -7 -8 -9 -10 -10 -10 -10 -10 -10
-7 -7 -7 -7 -7 -7 -7 -6 -6 -6 -6 -7 -7 -7 -7 -7 -7 -7 -7 -7 -7 -8 -8 -7 -7 -7 -8 -9 -10 -10 -10 -10 -10
-8 -7 -7 -7 -7 -7 -7 -7 -6 -7 -7 -7 -7 -7 -7 -8 -8 -8 -7 -7 -7 -7 -8 -8 -8 -8 -7 -8 -9 -9 -10 -10 -10
-8 -7 -7 -7 -8 -8 -7 -7 -7 -7 -7 -7 -7 -7 -7 -7 -8 -8 -8 -7 -7 -7 -8 -8 -8 -8 -8 -8 -8 -8 -9 -9 -9
-8 -8 -8 -8 -8 -8 -8 -7 -7 -8 -7 -7 -7 -7 -7 -7 -8 -7 -8 -8 -8 -7 -8 -8 -8 -8 -9 -8 -8 -8 -9 -9 -9
-8 -8 -8 -8 -8 -8 -8 -8 -8 -8 -8 -8 -8 -7 -7 -7 -8 -8 -8 -8 -8 -8 -8 -8 -8 -8 -8 -9 -9 -9 -9 -9 -9
-8 -8 -9 -9 -9 -8 -8 -8 -8 -8 -8 -8 -8 -7 -7 -8 -7 -8 -8 -8 -8 -8 -8 -8 -8 -8 -8 -8 -9 -9 -9 -9 -9
-9 -8 -9 -9 -9 -9 -8 -8 -8 -8 -8 -8 -8 -8 -8 -8 -8 -8 -8 -8 -8 -8 -8 -8 -8 -8 -9 -9 -9 -9 -9 -9 -9
-9 -8 -9 -10 -9 -9 -9 -9 -9 -9 -9 -9 -8 -8 -8 -8 -8 -8 -8 -8 -8 -8 -8 -8 -9 -9 -9 -9 -9 -9 -9 -9 -9
-10 -9 -9 -10 -9 -9 -9 -9 -9 -9 -9 -9 -9 -8 -8 -8 -8 -8 -8 -8 -8 -8 -9 -9 -9 -9 -9 -9 -9 -9 -10 -9 -9
-10 -9 -10 -10 -10 -10 -9 -9 -9 -9 -9 -9 -9 -9 -9 -9 -8 -8 -8 -9 -9 -8 -9 -9 -9 -9 -9 -10 -10 -10 -9 -10 -10
-10 -10 -9 -9 -10 -9 -9 -9 -9 -9 -9 -10 -10 -9 -9 -9 -9 -9 -9 -9 -9 -9 -9 -9 -10 -10 -10 -10 -10 -10 -10 -10 -10
-9 -9 -9 -10 -10 -10 -9 -9 -9 -10 -10 -10 -10 -10 -9 -9 -9 -9 -9 -9 -9 -9 -9 -10 -10 -10 -10 -10 -11 -11 -11 -10 -11
-10 -10 -10 -10 -10 -9 -10 -10 -10 -10 -10 -10 -10 -10 -10 -10 -10 -9 -10 -9 -10 -10 -10 -9 -10 -10 -10 -10 -11 -11 -11 -11 -11
-11 -11 -10 -10 -10 -10 -10 -10 -11 -10 -10 -11 -10 -11 -11 -11 -11 -10 -10 -9 -10 -10 -10 -10 -10 -11 -11 -11 -11 -11 -11 -11 -11
-12 -11 -10 -10 -10 -10 -10 -10 -10 -10 -11 -11 -11 -11 -11 -10 -11 -11 -10 -10 -10 -10 -10 -10 -10 -11 -11 -11 -11 -11 -11 -12 -12
Height
5875 5879 5881 5883 5885 5887 5888 5890 5892 5892 5892 5894 5895 5895 5896 5897 5895 5894 5893 5893 5891 5889 5887 5883 5882 5878 5875 5875 5874 5873 5873 5873 5873
5873 5875 5879 5881 5883 5885 5887 5889 5891 5892 5893 5892 5896 5895 5896 5898 5898 5897 5895 5895 5894 5894 5890 5888 5886 5882 5879 5877 5876 5875 5875 5875 5874
5869 5872 5875 5879 5882 5883 5885 5887 5890 5892 5893 5893 5893 5896 5896 5897 5899 5899 5897 5898 5895 5896 5893 5892 5890 5887 5883 5881 5881 5880 5879 5877 5876
5865 5869 5872 5875 5879 5881 5884 5886 5888 5890 5892 5894 5893 5894 5896 5897 5898 5899 5899 5898 5897 5897 5896 5895 5892 5890 5887 5884 5883 5883 5883 5881 5880
5861 5865 5869 5872 5875 5878 5882 5884 5887 5890 5892 5894 5895 5893 5895 5897 5897 5899 5900 5900 5900 5898 5898 5897 5894 5892 5890 5886 5885 5884 5884 5885 5884
5856 5860 5864 5868 5872 5875 5879 5881 5884 5888 5891 5892 5893 5895 5895 5895 5897 5898 5899 5900 5900 5900 5899 5898 5896 5894 5893 5890 5888 5886 5885 5885 5885
5849 5854 5859 5863 5869 5872 5874 5878 5882 5885 5889 5891 5891 5893 5895 5896 5896 5896 5897 5899 5900 5900 5900 5899 5898 5896 5895 5893 5890 5889 5886 5885 5886
5843 5849 5855 5859 5865 5869 5871 5874 5879 5882 5886 5888 5889 5892 5894 5895 5896 5895 5897 5897 5899 5900 5900 5899 5898 5897 5896 5895 5892 5890 5889 5887 5886
5839 5845 5850 5854 5859 5862 5865 5871 5874 5878 5883 5885 5886 5889 5891 5893 5895 5896 5896 5895 5897 5898 5898 5898 5898 5897 5896 5895 5894 5892 5890 5889 5887
5832 5838 5844 5848 5852 5856 5859 5865 5869 5873 5879 5882 5883 5885 5887 5889 5892 5894 5894 5895 5895 5896 5896 5897 5896 5896 5896 5895 5894 5893 5891 5889 5888
5823 5830 5835 5841 5845 5849 5853 5859 5863 5868 5873 5878 5879 5881 5884 5885 5888 5891 5891 5893 5893 5894 5894 5894 5894 5894 5893 5894 5893 5892 5891 5889 5887
5813 5820 5826 5832 5837 5842 5847 5852 5858 5863 5868 5872 5873 5876 5879 5882 5884 5886 5887 5890 5891 5891 5891 5890 5892 5891 5890 5890 5891 5890 5889 5887 5886
5801 5810 5818 5823 5829 5835 5840 5844 5851 5856 5860 5865 5868 5871 5874 5877 5879 5882 5883 5885 5887 5888 5890 5888 5889 5889 5888 5887 5888 5887 5886 5885 5884
5793 5799 5807 5815 5821 5827 5831 5837 5843 5848 5853 5859 5862 5865 5869 5872 5875 5877 5879 5881 5883 5884 5887 5885 5886 5886 5885 5884 5884 5885 5883 5882 5880
5783 5789 5795 5806 5813 5819 5823 5830 5835 5840 5845 5852 5855 5858 5862 5866 5870 5873 5876 5877 5878 5881 5881 5882 5882 5883 5882 5882 5880 5881 5881 5880 5879
5774 5782 5787 5795 5803 5809 5813 5821 5827 5832 5838 5844 5849 5852 5857 5861 5865 5867 5870 5872 5873 5876 5877 5879 5878 5879 5877 5878 5877 5877 5877 5876 5875
5759 5766 5773 5783 5788 5796 5804 5812 5820 5825 5830 5836 5841 5844 5850 5855 5858 5861 5864 5866 5868 5870 5872 5873 5875 5874 5874 5874 5872 5872 5872 5872 5870
5755 5761 5759 5771 5777 5785 5794 5804 5811 5818 5823 5827 5833 5838 5845 5848 5851 5854 5857 5859 5862 5863 5865 5866 5869 5870 5869 5869 5868 5867 5866 5866 5864
5744 5750 5754 5761 5768 5775 5784 5791 5799 5807 5813 5818 5824 5828 5836 5838 5842 5847 5850 5853 5855 5856 5859 5860 5862 5864 5864 5863 5862 5862 5861 5861 5859
5731 5742 5745 5752 5760 5768 5775 5781 5789 5795 5801 5807 5814 5818 5825 5830 5834 5839 5843 5846 5848 5850 5853 5855 5856 5857 5857 5857 5857 5855 5854 5854 5852
Wind_Speed
27 24 23 20 17 15 14 12 10 11 13 10 12 13 14 14 17 20 22 22 23 24 24 23 22 21 20 17 14 12 9 9 10
31 27 25 23 21 18 16 13 12 10 11 13 9 11 12 12 14 16 20 20 23 21 24 22 21 21 22 21 20 17 16 14 14
34 30 27 25 23 21 19 16 13 11 10 11 12 8 9 10 12 12 16 17 20 19 21 21 19 20 21 22 22 20 20 20 18
37 34 30 28 26 24 20 18 15 14 12 9 11 9 7 8 9 10 11 14 16 16 18 18 20 18 19 21 21 21 20 21 20
40 38 33 30 28 26 24 20 18 15 12 10 9 11 9 6 7 8 8 9 11 13 15 16 18 18 17 17 18 17 19 18 18
42 40 38 33 29 28 26 24 21 18 15 13 11 9 9 8 6 7 6 6 6 7 10 12 15 15 15 14 15 15 16 15 15
46 43 42 38 32 28 28 27 24 20 18 15 15 12 9 8 7 7 6 4 3 5 7 8 10 11 12 12 12 11 12 13 11
48 47 43 41 36 31 30 29 26 24 21 18 17 14 11 9 8 7 6 5 1 2 4 6 6 6 7 7 8 9 8 9 8
49 47 45 43 38 37 35 31 29 27 23 21 20 17 15 13 11 9 6 5 4 3 3 3 4 6 5 5 6 5 5 6 5
50 49 47 45 43 41 39 34 32 29 26 24 24 22 19 16 14 12 9 7 6 6 5 6 4 4 6 7 7 7 5 5 5
51 52 50 49 47 44 42 40 36 33 30 28 28 26 23 21 18 15 12 11 10 8 8 9 8 7 5 9 9 9 9 9 8
57 55 55 52 51 48 45 43 40 37 33 31 32 30 27 24 22 17 14 14 13 12 10 9 11 10 8 8 10 11 12 12 13
63 60 58 55 53 51 49 47 43 40 37 34 34 33 30 26 23 20 15 15 15 14 14 10 12 12 11 9 12 13 12 13 14
57 63 64 58 56 54 52 50 46 44 40 37 35 35 33 30 27 24 21 19 17 14 16 12 13 13 12 11 12 16 13 13 13
67 52 61 59 58 56 55 52 50 47 44 41 39 37 35 32 30 25 24 19 16 16 14 15 13 13 13 13 12 16 17 16 16
63 60 58 58 63 62 59 56 54 50 46 43 41 39 36 35 32 28 29 24 20 18 15 16 14 14 13 15 15 16 19 18 18
54 55 56 56 68 65 62 58 55 52 49 46 43 40 38 37 35 31 32 28 26 23 21 18 17 15 16 16 15 17 18 20 20
57 52 46 60 59 64 66 60 57 53 53 50 49 41 39 38 35 34 33 30 30 28 26 26 21 18 18 18 19 20 20 22 22
65 50 43 51 51 52 55 63 61 58 56 56 56 49 43 40 41 42 42 37 32 29 29 30 32 29 25 22 21 23 23 27 25
71 60 40 47 46 48 54 53 61 60 68 64 58 53 53 51 46 46 44 40 35 31 30 29 28 28 28 27 28 27 29 30 30
Wind_Direction
202 201 199 189 193 187 184 174 162 141 122 103 98 84 75 63 66 64 59 49 45 42 46 52 57 60 63 63 59 68 67 67 60
207 201 204 196 194 196 198 188 176 163 144 124 107 99 86 71 68 64 67 58 52 42 45 45 53 59 61 62 62 69 74 73 72
211 207 206 205 201 202 200 194 194 181 170 150 134 118 101 85 70 65 72 68 64 49 48 44 47 58 62 64 64 67 73 77 77
213 212 207 208 207 209 207 205 199 197 183 177 155 145 133 108 89 70 65 71 70 60 53 47 45 48 61 67 67 66 67 70 74
215 215 213 209 211 212 211 210 209 208 204 183 198 170 151 144 113 94 66 64 66 65 58 54 52 45 52 65 69 67 65 61 62
215 217 216 214 213 216 215 214 216 211 211 197 210 218 176 167 148 123 96 71 60 59 64 56 59 52 42 51 64 69 66 59 54
214 215 218 217 215 219 223 219 218 218 216 211 217 217 220 197 175 169 151 103 54 33 36 44 53 55 52 47 51 52 66 63 48
216 215 217 221 219 221 225 224 223 222 219 218 226 227 223 227 218 192 197 156 168 7 4 13 21 39 41 41 48 51 41 56 44
219 218 215 219 218 219 224 223 225 224 222 221 228 230 231 233 235 236 222 197 230 224 277 318 345 351 1 5 8 31 29 26 24
221 221 218 218 219 221 223 222 224 224 223 225 227 230 231 234 241 242 245 247 236 247 245 264 280 311 328 330 335 333 341 337 341
220 222 221 219 219 221 222 224 224 225 224 225 230 232 232 233 237 245 248 258 260 264 264 254 259 268 294 309 313 313 313 315 315
224 222 221 220 220 221 223 224 226 227 227 225 230 233 233 234 236 239 250 266 270 263 264 258 260 262 263 280 296 301 300 304 304
229 222 224 222 222 222 223 225 224 225 227 227 231 234 234 236 237 241 245 262 269 274 270 266 261 262 268 272 285 289 293 299 302
229 236 224 223 223 223 223 224 226 227 228 228 230 234 235 238 238 239 239 250 264 275 279 273 266 265 267 275 284 287 288 290 292
226 232 223 224 224 225 225 225 226 228 228 229 229 231 233 236 237 238 240 242 250 260 275 274 267 268 274 275 281 289 289 295 297
222 234 229 231 224 225 228 227 227 228 229 230 231 233 234 236 237 235 237 238 241 257 272 274 269 266 268 280 287 289 292 294 298
216 218 230 234 234 221 224 226 228 228 229 229 230 230 233 234 235 234 237 239 242 248 254 272 265 269 272 276 280 285 288 291 295
221 224 215 223 220 228 222 225 225 228 228 227 228 229 233 232 232 234 237 238 240 244 247 254 267 264 268 274 279 282 287 286 289
232 234 226 211 217 220 234 225 225 228 227 230 230 224 226 226 228 236 241 237 235 236 243 249 255 265 260 268 275 280 283 284 286
230 236 218 219 223 221 226 232 231 238 231 228 230 225 224 236 232 237 238 235 234 234 241 246 249 255 261 263 277 276 280 279 281